Regional Weather Roundup
Issued by NWS Wakefield, VA

Home | Current Version | Previous Version | Graphics & Text | Print | Product List | Glossary On
Versions: 1 2 3 4 5 6 7 8 9 10 11 12 13 14 15 16 17 18 19 20 21 22 23 24 25 26 27 28 29 30 31 32 33 34 35 36 37 38 39 40 41 42 43 44 45 46 47 48 49 50
000
ASUS41 KAKQ 162210
RWRAKQ

REGIONAL WEATHER ROUNDUP
NATIONAL WEATHER SERVICE WAKEFIELD VA
500 PM EST TUE DEC 16 2014

Note: "fair" indicates few or no clouds below 12,000 feet with no
significant weather and/or obstructions to visibility. * = Denotes
station may not report precipitation (e.g., rain,snow,etc.),
thunder or fog.

VAZ042-051-052>054-056-162300-
NORTHERN VIRGINIA

CITY           SKY/WX    TMP DP  RH WIND       PRES   REMARKS
WASH NATIONAL  CLOUDY    48  43  82 S7        29.88S
DULLES         CLOUDY    44  43  96 SW3       29.87F FOG
FORT BELVOIR   CLOUDY    46  44  94 CALM      29.88S
QUANTICO       CLOUDY    44  42  93 CALM      29.89R FOG
FREDERICKSBRG* CLOUDY    48  48 100 S3        29.86S
STAFFORD*      CLOUDY    46  32  58 CALM      29.90S FOG
WARRENTON      FOG       46  46 100 CALM      29.86S VSB 3/4
CULPEPER*      CLOUDY    46  45  93 CALM      29.87S FOG
MANASSAS*      CLOUDY    45  45 100 CALM      29.87R
LEESBURG*      FOG       43  43 100 MISG      29.88R VSB 1
WINCHESTER     CLOUDY    43  37  81 CALM      29.85R HAZE
FRONT ROYAL*   CLOUDY    41  39  93 CALM      29.84R
LURAY*         MOCLDY    46  46 100 NE7       29.83R
$$

VAZ048-049-060>072-079>083-162300-
CENTRAL AND SOUTH CENTRAL VIRGINIA

CITY           SKY/WX    TMP DP  RH WIND       PRES   REMARKS
RICHMOND       CLOUDY    49  46  90 S5        29.88R FOG
CHESTERFIELD*  CLOUDY    48  37  66 SW3       29.89S
PETERSBURG*    CLOUDY    50  49  95 S6        29.90R FOG
HANOVER        CLOUDY    47  46  97 S3        29.89S FOG
TAPPAHANNOCK*  CLOUDY    48  45  89 CALM      29.88F FOG
QUINTON*       CLOUDY    48  47  97 CALM      29.88R
CHARLOTTSVILLE CLOUDY    45  43  93 S3        29.86R FOG
GORDONSVILLE*  CLOUDY    44  43  98 CALM      29.86R FOG
ORANGE*        CLOUDY    46  45  93 S5        29.88R FOG
LOUISA*        CLOUDY    48  46  93 S5        29.85S FOG
BUMPASS*       CLOUDY    47  45  93 CALM      29.86F
FARMVILLE*     CLOUDY    49  49 100 CALM      29.88R FOG
CREWE*         CLOUDY    47  46  94 SW5       29.88R
FORT PICKETT*  CLOUDY    47  47  97 SW8       29.89R
CHASE CITY*    CLOUDY    49  49 100 CALM      29.89R VSB 3/4
CLARKSVILLE*   CLOUDY    48  46  93 CALM      29.89R
SOUTH HILL*    CLOUDY    49  47  95 S9        29.96R
LAWRENCEVILLE* CLOUDY    49  48  97 SW6       29.90R
EMPORIA*       CLOUDY    46  46 100 CALM      29.92R FOG
$$

VAZ088>098-162300-
SOUTHEAST VIRGINIA

CITY           SKY/WX    TMP DP  RH WIND       PRES   REMARKS
NORFOLK        LGT RAIN  53  49  86 S9        29.90R
VIRGINIA BEACH TSTM      54  50  86 SW5       29.91R FOG
NORFOLK NAVAL  LGT RAIN  55  50  83 S5        29.92R
WEST POINT*    CLOUDY    51  49  92 SE5       29.90R
SALUDA*        CLOUDY    47  46  97 CALM      29.89S
NEWPORT NEWS   CLOUDY    55  49  80 SW7       29.91R
LANGLEY AFB    DRIZZLE   52  50  93 S7        29.91R FOG
FORT EUSTIS    RAIN      50  50 100 VRB2      29.89R FOG
WILLIAMSBURG*  CLOUDY    54  52  94 S6        29.91R
HR EXEC AP*    MOCLDY    52  48  87 S7        29.93R
FRANKLIN*      CLOUDY    52  52 100 S5        29.91F
WAKEFIELD      CLOUDY    51  48  89 S5        29.91R
$$

VAZ020-022-025-037-045-162300-
WEST CENTRAL AND SOUTHWEST VIRGINIA

CITY           SKY/WX    TMP DP  RH WIND       PRES   REMARKS
STAUNTON*      CLEAR     49  43  79 SW5       29.84R
WAYNESBORO*    CLEAR     51  42  71 SW6       29.83R
HOT SPRINGS VA LGT RAIN  42  42 100 W16G22    29.82R VSB 1
LYNCHBURG      CLOUDY    46  45  96 CALM      29.89R FOG
DANVILLE       CLOUDY    50  46  86 W5        29.91R
SOUTH BOSTON*  CLOUDY    49  47  95 CALM      29.89S
MARTINSVILLE   CLEAR     48  48  99 CALM      29.92R
ROANOKE        MOCLDY    56  38  50 SW8       29.87R
BLACKSBURG     CLOUDY    50  37  62 W3        29.91R
DUBLIN*        CLOUDY    51  41  67 W8        29.91R
MARION*        CLOUDY    48  40  74 W15G23    29.93R
HILLSVILLE*    CLOUDY    47  38  69 W6        29.90R
RICHLANDS*     CLOUDY    45  39  81 W14       29.94R
WISE*          DRIZZLE   45  41  87 W6        29.98R
ABINGDON*      CLOUDY    49  40  72 W9        29.97R
$$

MDZ021>025-VAZ099-100-162300-
SOUTHERN MARYLAND AND THE DELMARVA PENINSULA

CITY           SKY/WX    TMP DP  RH WIND       PRES   REMARKS
PATUXENT RIVER CLOUDY    47  45  93 SE8       29.87F FOG
BAY BRIDGE APT   N/A     46  45  93 CALM      29.88R FOG
LEONARDTOWN    CLOUDY    46  45  93 SE3       29.88F
DOVER          CLOUDY    46  46 100 SE6       29.87F
GEORGETOWN     CLOUDY    51  48  89 S8        29.89F
EASTON         CLOUDY    50  50 100 S8        29.91F FOG
CAMBRIDGE      CLOUDY    52  48  87 S6        29.87F
SALISBURY      CLOUDY    53  49  86 S5        29.89F
OCEAN CITY     LGT RAIN  50  48  93 SE7       29.87F FOG
WALLOPS ISLAND CLOUDY    49  49 100 S3        29.89S FOG
ACCOMACK*      CLOUDY    50  46  87 W3        29.89F FOG
$$

NCZ012>017-030>032-162300-
NORTH CENTRAL AND EASTERN NORTH CAROLINA

CITY           SKY/WX    TMP DP  RH WIND       PRES   REMARKS
ROANOKE RAPIDS CLOUDY    48  46  93 S5        29.90S FOG
RALEIGH        CLOUDY    51  48  89 CALM      29.91R FOG
ELIZABETH CITY RAIN      58  48  69 S8        29.92R
AHOSKIE*       CLOUDY    50  49  95 S5        29.92F FOG
EDENTON*       RAIN      54  49  85 S10       29.93F
CURRITUCK*     LGT RAIN  55  49  79 CALM      29.94R
KILL DEVIL HLS RAIN      57  44  62 SW7       29.93R
MANTEO         CLOUDY    54  47  77 SW9       29.93S
CAPE HATTERAS  PTCLDY    59  54  83 SW10      29.94F
TARBORO*       DRIZZLE   52  50  92 CALM      29.93S
GOLDSBORO      CLOUDY    55  54  99 CALM      29.89S
WASHINGTON     RAIN      54  52  92 CALM      29.93F
GREENVILLE     MOCLDY    54  52  94 CALM      29.93F
NEW BERN       LGT RAIN  61  48  62 SW12      29.95R
WILMINGTON     LGT RAIN  64  50  60 S10       29.93S
$$

VAZ048-162300-
ELSEWHERE

CITY           SKY/WX    TMP DP  RH WIND       PRES   REMARKS
HARRISBURG PA  CLOUDY    43  41  93 SE3       29.86F FOG
BALTIMORE      CLOUDY    46  44  93 CALM      29.87S FOG
ANNAPOLIS      CLOUDY    46  44  93 S7        29.88S FOG
ANDREWS AFB    CLOUDY    46  45  95 S8        29.86S
PHILADELPHIA   CLOUDY    49  45  86 SE3       29.91F
HENDERSON NC   CLOUDY    49  47  93 S6        29.91R FOG
GREENSBORO     MOCLDY    50  47  89 W9        29.90R FOG
ROCKY MOUNT    CLOUDY    51  49  92 CALM      29.91F FOG
$$

VAZ100-162300-
MARINE

STATION/POSITION TIME  TEMP    WIND        PRES    WAVE   SWELL
                       AIR SEA DIR/SP/G            HT/PER HT/PER
                 (UTC) (F)     (DEG/KT/KT) (MB)    (FT/S) (FT/S)
CAPE MAY NJ      2200   50 45  120/ 12/ 16 1011.7R
LEWES DE         2200   49 43  150/  9/ 13 1012.3R
15NM E FENWICK I 2200   52 48              1014.1R   2/10
OCEAN-CITY-INLET 2200   50 46  170/  8/ 12 1012.7F
WACHAPREAGUE VA  2200   49 44  130/  2/  4 1011.4R
THOMAS POINT MD  2200   44 42  200/  9/ 10 1012.9S
GOOSES REEF MD   2200   45     VRB 10/ 12  1010.7F
COVE POINT MD    2200   45     180/ 13/ 14 1011.6S
SOLOMONS ISLAND  2200      44                N/A
BISHOPS HEAD MD  2200   45 43  150/  6/  7 1011.4S
PINEY POINT MD   2200          140/  6/  6   N/A
POTOMAC MD       2200   46     160/  4/  6 1011.0F
CAMBRIDGE MD     2200   49 41  170/  4/  6 1011.8S
LEWISETTA VA     2200   46 43  130/  6/  7 1011.3S
RAPPAHANNOCK LGT 2200          180/  5/  5 1012.5F
STINGRAY PT      2200   46     180/  6/  6 1012.7R
YORK RVR RNG VA  2200   49     230/  5/  6 1011.8R
YORKTOWN VA      2200   49 46  130/  2/  2 1011.9R
JAMESTOWN VA     2200   49     200/  4/  6   N/A
DOMINION TERM VA 2200   49     260/  5/  6 1012.8R
KIPTOPEKE VA     2200      51  240/  3/  4   N/A
CHES BAY BRIDGE  2200   52 46  220/  7/  7 1011.8R
CAPE HENRY VA    2200   53     200/  4/  7 1010.9R
CHESAPEAKE LGHT  2100   53     120/  2/  3 1012.2F
WILLOUBY STN VA  2200   51     230/ 10/ 11 1013.2R
S CRANEY ISL VA  2200          210/  6/  8 1012.7S
CAPE HENRY BUOY  2200      47                N/A     2/11   2/11
1ST LANDING BUOY 2200   50     250/  6/  6 1011.9R
CAPE CHARLES BUO 2200      47                N/A     2/11   2/11
64NM E OF VA BCH 2200   57 55  210/ 10/ 14 1013.0R   2/ 9   2/ 9
DUCK PIER NC     2200   60 48  190/ 12/ 13 1012.0F
44100 DUCK FRF   2200      50                N/A     2/11   2/11
44056 DUCK FRF   2200      47                N/A     2/11   2/11
OREGON INLET NC  2200   53 50  180/ 11/ 12 1013.5F
HATTERAS NC      2200   59 54  200/  2/  7 1014.2F
DIAMOND SHLS NC  2200   69                 1013.9F   5/ 5
CAPE LOOKOUT NC  2100   62     190/  9/ 10 1014.2F
$$


USA.gov is the U.S. government's official web portal to all federal, state and local government web resources and services.